Wind_Speed
26 27 29 31 33 34 36 38 39 41 46 49 50 51 51 51 52 51 53 52 53 55 56 56 57 58 58 59 59 62 62 58 57 54 54 56 52 48 47 46 43 39 37 38 38 38 39 44 49 52 56 58 60 62
23 25 27 29 31 33 36 39 41 44 47 49 47 47 46 46 49 51 51 50 50 50 51 52 53 55 57 55 52 55 53 52 51 50 46 43 44 43 42 36 36 34 33 31 33 37 43 48 52 56 58 60 62 59
23 24 26 29 31 33 35 37 39 41 42 41 42 44 47 49 50 48 47 47 47 48 49 50 50 50 46 46 48 47 45 45 45 44 42 42 36 34 33 30 28 27 29 30 35 44 48 52 57 58 59 59 60 53
24 26 29 32 34 35 36 36 38 39 40 43 45 48 50 48 47 46 45 46 47 47 46 45 43 42 43 41 39 37 40 42 39 39 37 34 31 28 26 27 25 28 29 36 42 47 51 56 58 58 57 59 53 48
28 29 34 35 37 38 38 40 41 43 46 48 47 45 43 44 45 46 47 46 44 42 39 39 39 37 37 38 39 39 37 37 35 34 33 28 27 25 26 23 25 29 36 40 46 53 56 57 60 57 57 53 49 46
34 35 38 39 41 42 42 43 43 42 42 42 42 43 44 44 44 41 37 37 37 37 34 33 31 34 36 37 34 34 33 32 30 29 27 25 22 24 23 24 30 35 41 48 52 54 57 59 59 53 52 48 47 48
34 35 39 40 39 39 40 40 41 43 43 43 43 43 41 40 37 36 35 31 26 29 30 30 31 33 34 33 31 28 28 27 24 23 23 22 21 21 24 31 38 44 49 50 52 57 59 57 53 51 48 47 48 51
34 32 41 43 43 42 42 42 42 41 41 41 40 38 38 37 36 34 35 35 33 31 31 28 27 26 27 27 27 26 25 23 22 22 20 20 22 25 32 40 45 47 49 51 57 57 55 53 50 48 48 50 52 52
37 36 40 43 44 43 43 43 42 41 40 38 37 36 35 37 35 32 31 29 28 26 27 24 24 25 23 24 23 21 23 23 19 20 22 23 26 36 42 45 47 50 52 57 57 56 53 49 48 50 52 52 52 51
36 39 40 43 44 43 42 41 40 39 38 38 38 36 36 34 30 30 31 30 31 32 30 29 28 27 26 25 24 24 21 21 23 25 26 31 38 41 43 46 49 50 54 54 54 49 46 48 52 53 53 50 49 49
40 42 44 44 43 42 40 40 37 35 34 33 33 33 32 32 33 34 33 33 33 33 33 31 30 28 28 23 19 19 22 23 26 29 35 39 41 43 46 48 50 51 51 47 45 44 47 51 52 51 49 47 44 40
41 41 43 43 41 38 37 34 33 33 34 34 34 33 35 36 35 36 35 35 33 31 30 27 24 21 19 19 21 22 23 25 29 33 38 43 45 48 51 49 47 44 42 41 42 47 49 50 50 47 42 39 37 36
38 42 42 41 39 38 37 37 38 37 34 34 37 38 37 36 35 36 33 30 30 28 27 25 25 24 21 19 20 23 26 30 33 36 40 43 47 45 41 38 37 35 35 41 47 48 46 48 45 40 39 36 33 31
38 40 39 39 40 41 38 36 36 34 35 37 38 39 37 37 38 35 34 34 34 30 25 22 22 22 20 22 25 28 30 33 38 41 42 37 34 32 31 29 29 32 39 45 46 43 45 41 36 34 33 32 31 31
41 40 40 40 40 41 39 37 36 35 40 41 40 41 41 44 46 44 40 35 27 26 25 24 24 26 26 27 27 29 31 30 29 29 28 27 24 23 25 28 33 37 43 44 44 43 41 34 32 31 30 29 29 30
39 39 37 38 37 40 41 40 40 41 41 39 40 41 41 37 32 27 23 25 25 24 25 28 28 29 30 31 31 29 28 27 25 22 21 21 22 25 29 33 36 41 43 42 42 41 35 32 32 30 29 30 30 29
40 40 39 36 36 38 37 40 41 40 38 37 37 35 30 29 30 28 26 27 29 30 30 32 33 34 34 33 33 32 32 31 30 29 28 27 28 32 35 37 39 42 42 41 41 38 34 32 31 30 30 30 31 30
41 40 38 36 35 35 34 38 42 43 42 41 37 34 34 33 31 31 33 34 34 35 34 34 35 35 36 37 36 35 35 35 36 36 36 35 35 37 39 39 42 44 41 40 39 37 33 32 31 31 31 31 30 32
45 43 41 39 37 38 37 35 36 40 44 44 42 41 40 39 38 37 38 38 38 37 38 38 39 41 41 41 41 41 40 38 39 39 40 41 41 42 41 41 43 43 40 40 39 36 34 32 32 32 31 32 32 35
43 42 41 41 40 39 38 39 37 35 36 37 36 37 37 37 38 38 38 38 38 38 40 42 44 44 44 45 46 45 44 43 43 43 43 43 44 44 43 42 43 41 40 40 39 36 34 33 33 33 32 33 35 37
45 46 44 42 41 41 41 39 40 39 38 38 37 37 39 39 39 41 41 40 41 43 45 46 47 50 49 48 47 46 45 45 45 43 42 44 45 43 42 41 41 40 41 40 38 36 35 34 34 34 33 34 35 38
46 45 44 43 41 41 41 41 42 43 44 45 43 41 42 42 41 41 41 42 43 45 46 49 51 52 50 48 47 45 44 44 44 44 44 44 44 41 40 40 40 41 42 41 38 35 35 35 35 35 34 35 37 40
47 47 47 46 46 44 44 43 44 44 43 43 45 45 45 45 44 45 47 47 48 49 51 52 51 50 49 47 46 45 45 45 45 45 44 43 42 40 39 39 41 43 43 42 38 36 36 36 37 36 36 37 39 41
41 44 46 48 49 50 50 52 52 52 51 52 52 52 53 53 52 52 52 52 53 54 54 53 51 50 50 49 49 48 48 47 46 46 45 44 43 40 40 40 42 44 44 42 39 36 36 36 37 37 36 36 38 41
38 40 42 45 47 49 50 51 51 52 53 54 54 54 56 55 55 54 54 55 56 56 55 54 54 53 53 53 51 50 50 50 49 47 46 45 44 43 42 42 43 45 45 42 39 37 37 36 37 37 36 36 39 42
38 40 42 43 45 48 49 52 53 55 55 56 56 56 56 57 57 57 58 59 59 59 58 58 57 56 56 56 55 53 52 52 50 48 47 47 46 45 43 43 44 46 44 41 38 37 36 36 36 36 36 36 39 43
33 36 40 40 43 45 47 48 49 50 50 51 51 52 53 53 54 55 55 56 57 57 57 58 57 56 56 56 54 52 51 51 50 49 46 47 47 46 44 44 44 44 41 38 36 36 36 35 35 36 36 37 39 42
34 34 35 37 38 39 41 42 43 44 46 47 47 48 47 46 46 45 46 46 47 49 51 52 52 53 52 51 50 50 50 49 48 46 46 45 45 44 43 43 42 41 38 36 35 35 35 34 34 35 35 37 39 42
29 28 27 26 25 25 27 31 36 40 39 31 33 35 36 36 36 38 40 41 42 44 46 48 48 49 49 49 49 47 46 46 46 45 45 43 42 42 40 40 39 38 36 35 34 34 33 33 34 35 36 37 39 42
18 15 16 17 15 19 23 24 28 27 26 27 27 29 31 34 34 34 36 39 42 43 44 45 45 45 45 44 44 43 41 40 40 39 39 39 38 38 38 37 36 35 35 34 33 32 32 32 33 35 37 38 40 43
22 24 26 27 29 31 31 32 32 33 34 36 37 38 37 35 36 37 37 37 36 35 35 37 37 36 35 35 35 34 34 35 35 35 37 36 36 36 36 35 35 34 33 32 32 32 31 32 35 36 37 39 40 42
19 20 21 23 24 25 30 32 33 33 33 32 32 32 34 35 34 34 33 31 30 29 31 31 29 30 31 31 31 31 32 33 34 34 35 34 34 34 34 34 33 32 32 32 31 31 32 34 35 35 36 40 42 43
20 21 22 23 24 27 27 27 29 31 31 31 32 32 31 30 33 34 28 31 33 33 33 33 32 31 30 30 30 30 31 32 32 32 31 31 31 31 30 29 29 30 30 31 31 33 33 34 34 34 37 41 43 44
Wind_Direction
198 198 198 198 196 195 193 193 193 193 194 193 195 197 197 197 199 200 203 205 207 211 216 219 222 227 231 234 238 239 243 247 248 251 253 255 255 255 255 257 262 266 264 262 266 270 274 278 283 285 288 292 298 301
186 185 186 187 187 188 188 186 185 185 187 190 191 189 186 189 191 194 197 200 203 206 211 214 218 223 226 228 232 237 242 246 248 250 248 249 249 253 256 256 257 256 256 259 265 273 277 279 282 289 293 298 300 302
175 177 178 178 176 175 177 178 179 181 182 180 178 175 178 183 187 187 190 194 200 204 208 212 216 220 224 226 233 237 238 241 238 237 241 245 246 247 249 250 249 249 255 266 273 276 280 286 288 295 299 300 301 299
163 162 163 162 161 162 163 165 165 165 166 165 166 170 175 179 179 183 186 192 197 202 207 212 217 220 223 228 232 231 228 232 236 235 239 239 240 243 245 241 241 252 265 271 275 282 286 290 295 300 302 303 299 298
152 155 154 153 151 150 153 157 157 156 158 163 168 171 173 175 180 184 187 190 196 201 205 209 215 219 217 217 218 225 229 233 233 234 234 236 233 237 236 235 250 263 269 274 279 279 284 294 299 301 302 300 298 296
145 153 148 146 147 149 150 153 156 157 158 161 164 167 172 175 181 186 188 191 193 199 208 209 209 210 211 216 221 223 226 226 226 225 227 230 230 230 233 245 262 268 271 272 276 286 293 299 300 302 301 299 296 297
152 148 144 143 145 148 150 152 154 157 161 163 165 168 170 173 174 173 174 181 187 194 199 206 208 210 212 215 218 220 221 213 215 219 216 222 225 239 253 260 263 265 270 278 286 292 297 300 301 302 300 297 297 299
156 153 151 149 149 150 151 152 154 157 158 160 162 163 164 167 169 173 176 178 180 184 192 199 203 207 209 210 205 202 204 206 205 206 210 225 241 253 259 262 265 272 279 285 294 298 302 304 302 301 299 300 300 299
156 155 152 151 150 150 151 153 155 156 156 156 155 157 161 164 167 171 175 180 184 183 183 183 190 194 190 188 190 195 193 190 193 212 226 242 254 256 259 266 274 279 284 294 300 303 304 303 303 303 303 301 299 297
155 154 153 149 148 150 151 150 151 152 154 157 160 162 167 172 174 175 174 177 177 177 176 174 176 175 173 167 171 180 189 202 212 226 238 246 253 264 271 277 283 286 295 300 302 303 304 304 305 305 303 303 300 299
156 152 150 151 150 150 152 153 156 159 163 166 168 172 173 171 170 167 168 169 170 166 168 167 163 166 170 179 189 201 213 224 233 242 248 258 269 275 280 286 290 296 300 301 302 303 303 307 306 306 304 302 300 299
154 153 151 152 151 152 155 158 157 158 160 162 164 164 164 164 164 163 164 165 165 163 162 164 167 174 184 201 212 225 236 248 257 261 266 269 274 280 286 292 296 299 300 300 302 306 309 308 309 308 308 308 306 304
155 158 155 156 156 157 158 158 158 159 160 160 158 160 160 162 162 162 160 162 164 170 178 182 191 199 209 224 241 249 252 258 264 269 272 276 282 286 291 293 296 296 300 304 306 309 311 309 310 312 313 312 310 307
157 156 159 157 159 159 158 160 163 164 165 163 162 157 158 158 161 165 171 174 181 186 192 202 210 219 234 245 253 261 266 273 277 280 280 284 287 289 291 291 294 300 304 307 311 312 311 311 313 312 310 311 313 311
165 162 162 164 165 165 163 160 160 161 161 163 165 164 167 172 177 179 180 186 191 197 204 214 228 236 243 254 262 273 277 280 285 286 286 284 284 285 289 297 303 305 308 312 313 314 313 314 313 310 310 310 308 308
170 170 168 168 170 170 170 168 164 164 166 170 176 184 187 185 184 183 188 198 207 215 225 232 238 247 254 263 272 278 275 281 286 286 285 285 288 292 296 300 305 308 311 315 315 314 315 315 311 310 311 311 311 313
174 174 176 176 175 176 177 176 175 172 168 176 189 186 183 186 194 201 207 212 218 222 231 241 249 256 262 263 269 272 271 274 281 285 286 289 292 293 297 305 310 311 314 316 315 315 316 313 311 311 313 315 317 319
182 181 179 182 186 186 186 186 183 183 189 194 196 203 204 204 208 211 217 224 229 234 242 250 253 258 263 268 268 266 269 271 276 281 287 291 293 296 302 307 310 311 314 315 315 317 315 312 310 311 315 317 318 321
189 189 189 191 191 192 193 198 198 196 199 203 204 206 212 216 221 225 228 229 234 240 246 250 254 258 264 268 268 269 271 274 277 281 285 290 295 299 304 306 306 310 312 313 314 316 313 310 309 311 314 315 318 320
195 196 198 200 199 197 198 202 204 208 212 215 216 216 218 222 226 229 233 237 242 246 248 252 256 261 263 266 268 271 274 277 280 283 287 291 295 298 301 303 305 306 308 311 311 312 310 306 306 309 312 316 318 317
198 201 204 205 204 205 206 206 210 212 217 218 220 223 226 228 232 234 237 241 244 248 251 253 256 260 264 268 271 274 278 280 282 285 288 292 293 296 298 301 303 303 305 307 307 310 307 303 304 308 309 313 316 318
205 207 208 209 213 215 216 214 216 217 220 221 226 229 232 235 236 239 240 244 248 251 252 254 256 259 264 267 271 275 279 281 283 286 288 288 291 293 296 299 301 301 302 303 306 308 305 301 302 305 307 312 315 319
207 210 212 214 218 218 223 227 230 231 233 234 236 238 240 242 242 242 246 247 251 252 254 255 259 263 267 270 273 275 277 280 283 284 285 287 288 292 295 298 299 298 300 301 303 305 302 298 300 304 306 311 315 317
214 215 217 221 223 226 225 229 230 234 235 239 242 245 246 245 244 247 249 251 251 254 257 260 262 265 268 270 273 275 277 280 281 282 284 287 289 290 294 296 295 295 297 299 302 302 299 296 299 303 307 311 314 316
222 222 224 227 229 231 234 236 238 238 240 242 243 245 247 247 249 251 251 253 256 258 260 262 264 265 267 270 272 274 277 279 280 282 284 286 287 288 291 292 292 292 295 296 298 299 296 295 298 302 306 310 313 316
221 223 227 229 233 236 237 240 241 243 244 245 246 247 247 248 250 251 253 255 258 261 264 265 267 268 270 272 274 275 276 277 279 280 281 283 283 285 286 287 288 291 292 293 295 296 294 295 297 300 305 309 313 316
219 224 224 227 231 233 237 239 241 243 245 247 249 251 251 252 253 254 255 257 258 261 262 265 267 269 269 270 272 272 272 273 274 275 277 278 280 282 283 285 287 288 289 291 293 293 291 293 296 299 303 309 312 315
227 233 231 233 237 238 239 243 244 246 247 249 251 252 252 253 254 254 254 256 256 257 259 261 262 263 264 265 266 267 268 270 271 273 273 273 276 279 281 283 284 285 288 291 291 289 290 294 297 300 304 309 312 315
241 248 254 248 249 250 253 251 250 251 252 255 254 256 257 260 260 259 258 258 257 256 256 256 257 258 260 261 263 264 266 267 268 269 272 274 277 279 280 281 283 285 288 288 287 286 290 294 296 299 303 307 310 315
240 233 245 245 244 246 249 254 253 256 256 254 249 249 250 251 252 250 249 251 250 249 251 253 255 257 258 260 262 264 266 268 269 270 272 273 274 276 278 280 282 284 284 283 283 285 289 293 296 299 303 306 310 315
227 222 223 222 229 235 240 244 245 244 242 242 243 245 248 250 250 253 253 255 258 261 261 262 263 265 267 266 266 265 265 266 267 269 270 272 273 275 277 278 279 279 278 279 282 286 289 293 297 298 303 307 311 313
241 242 241 238 238 239 242 245 249 254 258 259 260 261 263 262 263 263 263 265 266 266 269 272 270 267 266 267 267 266 266 267 268 268 270 271 274 275 275 277 277 277 280 284 286 287 291 295 298 301 305 308 309 311
247 245 243 241 238 239 243 246 246 247 250 253 257 259 261 261 261 265 266 265 264 264 263 262 264 267 268 267 267 266 266 266 267 269 271 272 273 273 275 276 277 281 284 284 286 290 294 297 299 302 306 307 310 311
Height
9940 9946 9952 9959 9966 9974 9983 9993 10003 10014 10025 10036 10047 10060 10075 10090 10104 10120 10133 10147 10160 10171 10181 10194 10205 10216 10227 10235 10246 10249 10253 10261 10263 10267 10271 10273 10276 10277 10281 10281 10282 10285 10286 10284 10283 10282 10281 10280 10277 10275 10271 10266 10262 10254
9938 9944 9950 9957 9965 9974 9982 9991 10000 10011 10022 10032 10046 10062 10076 10090 10102 10115 10129 10142 10155 10166 10178 10188 10198 10206 10216 10225 10235 10237 10244 10248 10253 10258 10259 10262 10264 10267 10271 10274 10273 10275 10276 10275 10274 10274 10272 10270 10268 10263 10260 10254 10247 10240
9939 9945 9952 9958 9965 9974 9984 9992 10002 10013 10024 10037 10051 10064 10075 10087 10100 10114 10128 10141 10152 10162 10172 10183 10193 10199 10211 10218 10223 10230 10236 10238 10241 10244 10249 10252 10257 10259 10262 10264 10265 10266 10267 10268 10267 10265 10264 10260 10256 10252 10246 10240 10233 10225
9942 9948 9955 9962 9969 9977 9986 9996 10007 10018 10029 10041 10052 10064 10075 10089 10103 10116 10129 10138 10147 10157 10168 10179 10187 10196 10203 10211 10216 10220 10222 10228 10234 10238 10243 10245 10248 10251 10254 10256 10258 10259 10261 10260 10259 10256 10254 10249 10244 10239 10233 10225 10218 10211
9947 9955 9961 9968 9974 9983 9992 10002 10012 10022 10032 10044 10055 10067 10081 10092 10103 10114 10123 10134 10143 10155 10166 10173 10181 10189 10196 10202 10206 10210 10218 10222 10227 10230 10234 10239 10240 10244 10247 10250 10252 10253 10253 10253 10251 10245 10242 10237 10232 10226 10219 10210 10204 10199
9955 9962 9968 9974 9981 9990 9999 10008 10018 10029 10040 10051 10062 10073 10083 10094 10104 10114 10124 10134 10145 10153 10162 10170 10178 10183 10189 10194 10201 10206 10210 10215 10220 10225 10228 10231 10235 10239 10241 10244 10245 10246 10245 10243 10239 10234 10230 10225 10219 10212 10204 10197 10191 10186
9964 9970 9977 9984 9992 10001 10009 10018 10027 10036 10046 10055 10065 10075 10085 10095 10107 10118 10127 10136 10147 10153 10159 10166 10172 10178 10183 10189 10195 10200 10206 10210 10215 10219 10223 10227 10231 10234 10236 10238 10238 10237 10234 10232 10229 10223 10218 10212 10204 10196 10190 10184 10179 10173
9974 9978 9984 9991 10000 10009 10018 10026 10035 10044 10053 10062 10071 10081 10090 10098 10106 10116 10124 10132 10140 10148 10155 10162 10168 10175 10180 10186 10191 10196 10201 10206 10211 10216 10220 10223 10227 10229 10230 10230 10228 10227 10224 10221 10217 10211 10204 10196 10189 10183 10178 10172 10166 10161
9980 9987 9993 10000 10009 10017 10025 10033 10042 10050 10058 10066 10075 10084 10091 10098 10108 10117 10125 10133 10140 10148 10154 10160 10167 10172 10178 10184 10189 10195 10200 10204 10209 10213 10217 10220 10222 10223 10221 10221 10220 10217 10214 10210 10204 10197 10189 10182 10176 10171 10165 10159 10153 10146
9989 9995 10003 10011 10018 10025 10032 10040 10048 10055 10062 10070 10079 10087 10093 10101 10110 10118 10125 10133 10141 10147 10154 10159 10166 10172 10178 10184 10189 10195 10199 10203 10207 10210 10212 10214 10214 10214 10214 10212 10210 10207 10203 10197 10190 10183 10177 10172 10166 10159 10151 10144 10138 10133
9996 10003 10010 10017 10024 10032 10039 10046 10054 10062 10069 10076 10084 10091 10098 10106 10113 10122 10129 10136 10143 10149 10155 10161 10166 10173 10179 10184 10189 10194 10198 10202 10204 10206 10207 10207 10207 10206 10204 10202 10199 10195 10191 10184 10179 10173 10168 10162 10154 10147 10139 10132 10126 10120
10003 10010 10017 10024 10032 10040 10048 10054 10061 10068 10074 10081 10088 10095 10103 10110 10118 10126 10134 10140 10147 10153 10159 10164 10170 10175 10180 10185 10189 10193 10196 10199 10200 10201 10201 10200 10198 10196 10193 10191 10188 10184 10179 10174 10169 10163 10157 10150 10142 10135 10128 10122 10116 10111
10009 10016 10024 10030 10037 10043 10049 10056 10063 10069 10077 10085 10092 10100 10108 10117 10125 10131 10138 10144 10150 10155 10160 10164 10169 10174 10179 10184 10188 10190 10192 10194 10194 10194 10192 10190 10187 10185 10183 10180 10177 10174 10170 10165 10159 10154 10148 10139 10131 10124 10119 10114 10109 10104
10016 10023 10030 10037 10043 10050 10058 10066 10073 10079 10086 10093 10101 10108 10115 10121 10128 10134 10139 10142 10146 10153 10160 10166 10170 10174 10178 10181 10184 10186 10186 10186 10185 10184 10181 10179 10177 10175 10173 10171 10169 10166 10162 10156 10151 10144 10137 10130 10124 10118 10113 10108 10103 10099
10021 10028 10035 10042 10049 10057 10064 10070 10077 10083 10090 10098 10104 10110 10116 10119 10123 10128 10135 10141 10148 10154 10160 10164 10169 10171 10174 10177 10178 10179 10179 10177 10176 10174 10172 10170 10169 10167 10166 10164 10162 10158 10153 10147 10140 10134 10127 10121 10116 10112 10107 10102 10098 10093
10027 10035 10041 10048 10055 10061 10068 10074 10081 10088 10094 10101 10107 10110 10114 10122 10129 10135 10140 10144 10149 10153 10157 10161 10164 10167 10169 10171 10172 10171 10171 10170 10169 10168 10166 10164 10163 10162 10159 10157 10154 10149 10144 10138 10131 10125 10119 10114 10110 10105 10100 10096 10091 10086
10030 10037 10046 10053 10060 10066 10072 10078 10083 10090 10097 10100 10103 10110 10117 10123 10128 10133 10138 10143 10146 10151 10155 10157 10159 10160 10161 10162 10164 10164 10163 10163 10162 10161 10159 10158 10157 10154 10151 10149 10145 10139 10134 10129 10123 10117 10111 10107 10103 10098 10094 10089 10084 10079
10031 10039 10047 10054 10062 10069 10075 10079 10083 10089 10093 10097 10104 10110 10116 10122 10127 10132 10137 10141 10144 10147 10149 10151 10152 10153 10153 10154 10155 10156 10156 10155 10155 10153 10152 10150 10149 10146 10143 10140 10136 10131 10125 10120 10114 10109 10104 10100 10096 10091 10087 10082 10077 10072
10032 10039 10046 10053 10059 10067 10074 10080 10085 10088 10091 10097 10102 10109 10114 10119 10124 10128 10132 10135 10138 10141 10142 10144 10145 10145 10146 10146 10146 10146 10146 10147 10146 10145 10143 10141 10139 10137 10135 10132 10126 10121 10116 10111 10106 10101 10097 10093 10089 10084 10080 10075 10070 10065
10033 10039 10045 10051 10059 10065 10071 10076 10082 10088 10092 10096 10101 10106 10111 10115 10119 10123 10126 10128 10131 10133 10135 10136 10136 10137 10137 10137 10136 10136 10137 10137 10136 10135 10134 10131 10130 10127 10125 10121 10117 10112 10107 10103 10098 10093 10089 10085 10082 10078 10073 10068 10063 10058
10029 10036 10042 10049 10055 10061 10066 10073 10078 10083 10087 10091 10095 10100 10104 10108 10111 10114 10118 10121 10123 10124 10126 10126 10127 10127 10127 10127 10126 10127 10127 10127 10126 10125 10124 10122 10119 10118 10115 10111 10107 10102 10098 10094 10090 10085 10081 10077 10074 10070 10066 10061 10056 10051
10027 10033 10039 10045 10051 10057 10061 10067 10070 10074 10078 10083 10087 10092 10095 10099 10103 10106 10109 10111 10113 10114 10114 10115 10115 10115 10116 10116 10116 10117 10117 10116 10115 10114 10114 10111 10109 10107 10105 10101 10097 10093 10089 10086 10082 10077 10073 10069 10066 10062 10058 10053 10048 10042
10025 10030 10035 10041 10046 10051 10055 10060 10063 10067 10070 10074 10078 10082 10084 10087 10091 10093 10096 10098 10100 10101 10102 10102 10103 10104 10105 10106 10106 10106 10106 10106 10105 10103 10102 10100 10098 10097 10094 10091 10088 10083 10080 10077 10072 10068 10064 10061 10058 10054 10049 10044 10039 10033
10019 10023 10028 10032 10037 10041 10045 10049 10053 10056 10059 10062 10065 10068 10071 10074 10078 10080 10083 10086 10087 10087 10089 10091 10092 10093 10094 10094 10094 10095 10095 10095 10094 10092 10090 10089 10088 10086 10083 10081 10077 10073 10070 10066 10062 10059 10055 10052 10049 10045 10041 10036 10031 10025
10012 10016 10020 10024 10028 10032 10035 10038 10041 10044 10047 10050 10053 10056 10058 10062 10065 10068 10071 10072 10073 10074 10076 10078 10080 10081 10082 10083 10083 10084 10083 10083 10081 10081 10079 10078 10076 10074 10071 10069 10066 10062 10059 10056 10053 10049 10046 10043 10039 10036 10032 10028 10022 10017
10004 10007 10011 10014 10017 10021 10024 10025 10027 10030 10033 10036 10039 10042 10045 10048 10051 10054 10057 10059 10060 10062 10063 10065 10066 10068 10069 10069 10070 10072 10071 10069 10069 10068 10067 10065 10063 10061 10059 10056 10054 10051 10048 10045 10042 10039 10036 10034 10030 10027 10023 10018 10013 10008
9998 9999 10001 10003 10005 10008 10010 10013 10016 10018 10020 10023 10027 10030 10032 10034 10037 10040 10043 10046 10049 10050 10050 10052 10054 10055 10055 10055 10056 10057 10056 10055 10054 10053 10054 10051 10049 10048 10046 10044 10042 10040 10037 10035 10032 10029 10027 10024 10021 10018 10014 10009 10004 9999
9991 9991 9994 9996 9998 10000 10001 10003 10006 10009 10012 10014 10017 10018 10019 10022 10025 10029 10031 10034 10036 10037 10037 10038 10038 10038 10039 10040 10040 10040 10040 10040 10040 10040 10040 10038 10037 10035 10034 10033 10030 10028 10026 10024 10022 10020 10018 10015 10011 10008 10004 10000 9995 9989
9986 9987 9989 9991 9993 9995 9997 9998 10000 10000 10000 10003 10005 10008 10009 10011 10014 10016 10017 10020 10021 10021 10021 10022 10022 10023 10023 10024 10025 10025 10026 10026 10026 10026 10026 10025 10024 10023 10023 10021 10020 10018 10016 10014 10012 10011 10008 10005 10001 9998 9995 9990 9985 9980
9982 9985 9986 9988 9989 9989 9990 9990 9990 9992 9994 9995 9997 9998 9999 9999 10002 10003 10004 10004 10004 10005 10006 10007 10008 10009 10010 10011 10012 10013 10013 10014 10014 10014 10014 10013 10013 10012 10011 10010 10008 10007 10006 10005 10003 10001 9998 9995 9992 9989 9985 9981 9975 9969
9976 9978 9980 9981 9982 9982 9983 9984 9984 9984 9985 9986 9987 9988 9988 9990 9992 9992 9991 9993 9995 9996 9997 9997 9998 9999 10000 10000 10001 10002 10002 10003 10002 10002 10001 10001 10001 10000 10000 9998 9998 9997 9996 9995 9993 9991 9988 9985 9982 9979 9975 9970 9965 9959
9969 9971 9972 9973 9975 9976 9976 9976 9977 9978 9979 9980 9980 9981 9983 9985 9985 9984 9985 9986 9987 9988 9989 9989 9989 9990 9990 9991 9991 9992 9992 9991 9991 9991 9991 9992 9991 9991 9990 9990 9989 9988 9987 9985 9983 9980 9978 9976 9973 9969 9965 9959 9954 9949
9964 9965 9965 9966 9967 9967 9968 9970 9970 9970 9971 9972 9971 9972 9973 9974 9974 9973 9977 9978 9977 9977 9978 9979 9980 9980 9981 9982 9982 9982 9982 9982 9982 9982 9983 9983 9984 9983 9983 9982 9981 9980 9977 9975 9972 9970 9968 9966 9963 9959 9954 9949 9944 9939